Location: Pardubice
(50.0618°N, 15.7556°E)
Time: 19:48:32
(UTC+02:00)

ISS - Pass Details

Date: 26 May 2018
Orbit: 402 x 408 km, 51.6° (Epoch: 19 September)

Event Time Altitude Azimuth Distance (km) Brightness Sun altitude
Rises 01:11:56 0° 287° (WNW) 2,321 0.2 -18.8°
Reaches altitude 10° 01:14:02 10° 284° (WNW) 1,459 -0.9 -18.7°
Enters shadow 01:16:20 39° 263° (W) 615 -3.1 -18.7°
